Погода в Бернбурге

Германия     51°47′29″N   11°44′24″E
темп.,
°C
ветер,
м/с
пор.,
м/с
влажн.,
%
обл.,
%
осадки,
мм/ч
давл.,
гПа
погр.,
м
3 марта, ср
ср301:00+5ю12830 0.0 103222
04:00+4ююз22810 0.0 103022
07:00+4юз33830 0.0 103042
10:00+10зюз23630 0.0 1029212
13:00+15юз34500 0.0 1027684
16:00+15зюз365812 0.0 1025437
19:00+10зюз347650 0.0 102473
22:00+8зюз358449 0.0 102393
4 марта, чт
чт401:00+7зсз249145 0.0 102297
04:00+6зюз129346 0.0 102136
07:00+5зюз229169 0.0 102038
10:00+8сз247797 0.1 1018369
13:00+6сз598498 0.2 1017397
16:00+6сз5881100 0.1 1015593
19:00+5сз488099 0.1 1016576
22:00+3с4879100 0.0 1018729
5 марта, пт
пт501:00+1ссв6992100 0.1 1019582
04:000с488499 0.1 1021526
07:00−2с369178 0.1 1023256
10:00+2с35602 0.0 1025867
13:00+4с454918 0.0 10251667
16:00+4ссз564761 0.0 10261827
19:00+1с376254 0.1 1029163
22:00−1ссв346231 0.0 103190
6 марта, сб
сб601:00−2сз226816 0.0 103328
04:00−2зсз22670 0.0 103362
07:00−2зсз22650 0.0 103426
10:00+2з22440 0.0 1034723
13:00+4з23320 0.0 10331239
16:00+5сз33340 0.0 10311228
19:000зюз12490 0.0 103122
22:000юз34540 0.0 103139
7 марта, вс
вс701:000зюз34570 0.0 102956
04:00−1з33560 0.0 102751
07:00−1зюз33570 0.0 102656
10:00+4зсз46460 0.0 1025778
13:00+7сз56475 0.0 10231095
16:00+6сз585490 0.0 1021825
19:00+1зсз487151 0.0 1021142
22:00+2сз377499 0.0 1021506